User: anonymous   Login
Location: Unspecified
(0.0000°N, 0.0000°E)
Time: 08:45:13
(UTC+00:00)
Language:

NOAA 18 - Orbit

View from above orbital plane
View from above orbital plane
View from above satellite
View from above satellite

Ground track
Ground track

The orbit data is extracted from the following two-line orbital elements,

1 28654U 05018A   19048.92521444 +.00000060 +00000-0 +57437-4 0  9998
2 28654 099.1143 093.9831 0014822 154.4264 205.7643 14.12404721708378
Epoch (UTC): 17 February 2019 22:12:18
Eccentricity: 0.0014822
inclination: 99.1143°
perigee height: 840 km
apogee height: 862 km
right ascension of ascending node: 93.9831°
argument of perigee: 154.4264°
revolutions per day: 14.12404721
mean anomaly at epoch: 205.7643°
orbit number at epoch: 70837

The dashed part of the orbit path shows where the satellite is in the earth's shadow,  

DLR